User: anonymous   Login
Location: Boitzum
(52.1496°N, 9.6943°E)
Time: 17:27:36
(UTC+00:00)
Language:

Cosmos 2074 Rocket - Orbit

View from above orbital plane
View from above orbital plane
View from above satellite
View from above satellite

Ground track
Ground track

The orbit is defined by the following mean orbital elements,

1 20578U          26064.22549235 +.00000000 +00000-0 +89181-4 0 00006
2 20578  82.9471 156.5523 0014195  78.4865 300.4175 13.76636128    03
Epoch (UTC): 05 March 2026 05:24:42
Eccentricity: 0.0014195
inclination: 82.9471°
perigee height: 965 km
apogee height: 986 km
right ascension of ascending node: 156.5523°
argument of perigee: 78.4865°
revolutions per day: 13.76636128
mean anomaly at epoch: 300.4175°

The dashed part of the orbit path shows where the satellite is in the earth's shadow,  

DLR